Theta_e
318 318 318 314 311 317 311 313 309 313 316 320 323 322 324 326 330 332 333 335 338 341 343 345 347 349 349 356 362 361 360 365
316 318 318 316 318 310 312 305 304 310 311 312 319 320 324 326 327 331 334 335 337 340 344 345 347 349 351 353 360 360 361 363
315 312 311 312 312 313 314 311 307 305 310 321 321 324 326 328 330 331 334 335 337 340 343 346 346 348 350 352 357 361 366 368
310 315 316 316 314 315 309 310 311 312 311 322 324 325 328 329 332 333 335 335 338 341 344 347 348 348 350 353 356 364 365 367
308 311 314 312 315 317 316 315 312 309 311 323 324 324 328 329 333 335 337 338 340 343 344 348 351 353 353 355 356 360 364 365
305 308 311 309 313 315 315 311 312 313 315 320 322 322 327 331 334 336 339 341 342 345 352 353 355 356 355 356 358 361 363 361
311 313 312 311 311 312 312 314 311 314 316 319 323 324 326 331 335 337 340 342 344 346 350 351 355 355 355 357 360 361 361 360
308 311 312 310 312 313 314 314 315 316 316 322 324 326 326 332 338 339 340 343 346 348 351 351 354 355 357 358 360 361 357 353
305 310 310 307 311 312 313 316 315 312 318 322 322 323 325 327 333 339 341 344 348 350 353 354 355 357 357 358 358 356 352 351
306 309 301 311 317 316 314 316 317 318 320 321 323 325 326 329 329 333 341 345 349 352 354 356 357 358 360 356 353 350 348 345
307 305 309 310 313 313 313 313 318 318 320 321 323 325 326 331 333 335 344 349 352 354 356 359 357 357 353 350 348 345 342 340
310 305 302 313 316 319 318 309 319 320 320 320 323 317 322 330 334 340 350 353 353 356 356 355 354 353 350 345 342 339 337 335
308 307 310 318 319 321 309 312 321 321 322 322 321 325 330 339 341 349 352 353 356 354 352 352 351 349 344 341 337 336 335 335
310 307 304 320 319 315 322 326 324 324 325 328 329 328 338 345 347 349 351 352 353 350 350 350 350 346 342 337 337 335 334 333
310 310 320 322 322 324 325 326 326 326 326 328 328 329 343 346 348 350 350 350 350 349 346 346 345 342 336 336 336 335 332 331
315 317 319 322 324 327 328 326 327 328 328 329 329 331 344 346 348 349 349 348 348 345 342 341 341 338 334 333 334 331 330 329
315 319 320 322 326 327 329 332 332 332 331 332 333 340 345 346 349 348 347 347 345 343 341 338 337 333 332 332 331 329 328 326
312 322 322 326 326 327 327 327 330 333 332 334 337 343 346 348 348 347 346 344 343 342 338 334 332 330 330 332 332 328 325 324
322 329 332 332 329 339 334 331 333 335 335 336 341 346 347 347 347 338 344 342 341 338 335 330 329 327 329 330 330 329 326 321
Wind_Speed
25 20 25 18 22 22 22 17 9 14 12 16 10 11 9 12 18 22 21 21 21 21 20 19 19 19 18 16 15 16 16 13
25 20 28 26 19 22 18 15 13 9 16 9 16 15 13 14 16 19 22 21 20 19 20 18 18 17 18 17 16 16 15 13
23 23 23 22 20 23 20 15 10 12 12 12 14 12 7 8 17 17 20 19 18 19 18 17 17 17 16 16 15 14 12 11
23 22 24 22 22 25 15 18 15 11 3 18 15 8 6 11 14 17 17 17 17 16 16 17 15 15 15 14 13 12 11 9
22 24 23 24 25 23 25 18 14 13 11 8 10 4 7 10 15 16 16 15 13 12 13 13 14 12 12 12 11 10 9 9
17 20 21 28 27 28 22 18 15 16 15 16 11 9 13 8 14 15 14 14 14 13 11 11 11 11 10 11 10 10 10 10
24 21 25 23 27 26 28 25 21 18 15 11 6 8 9 13 13 15 14 15 15 14 13 13 13 12 12 11 11 11 11 10
24 27 23 29 30 32 29 27 23 22 16 7 12 8 12 11 12 13 15 15 15 16 15 15 15 14 14 13 13 12 13 12
23 23 22 22 26 28 29 27 24 23 19 16 9 10 11 13 12 14 16 17 17 17 16 15 16 16 15 15 15 13 14 13
19 19 31 10 20 18 23 24 26 23 19 17 12 11 12 12 14 15 14 16 17 16 16 17 16 17 16 16 16 15 15 14
17 20 16 21 21 19 16 15 14 14 16 15 11 10 11 8 12 11 14 15 14 16 17 17 18 18 18 17 16 16 15 14
15 23 28 18 22 18 21 20 18 15 19 19 15 13 9 17 14 9 15 16 16 18 18 18 18 18 17 18 16 15 15 14
16 17 16 15 15 19 20 10 18 22 20 21 18 15 12 11 15 15 17 18 19 19 17 18 18 18 18 17 15 14 14 14
18 16 18 16 16 23 11 13 13 19 18 20 19 19 9 8 13 18 19 20 21 18 16 16 17 16 16 16 14 14 14 14
15 16 2 14 13 14 16 15 16 17 15 18 15 17 13 14 16 16 19 18 18 17 17 16 16 16 17 15 15 14 15 14
14 16 18 8 11 3 5 11 9 14 15 16 16 13 16 15 17 17 17 17 17 17 18 17 15 15 15 16 15 15 15 14
19 14 15 14 14 10 10 8 9 11 14 12 9 14 17 17 17 17 17 18 17 16 16 17 15 15 15 16 15 14 14 13
9 12 14 11 18 18 15 15 10 10 12 16 14 18 19 17 16 18 19 18 16 16 17 16 15 15 14 14 14 14 13 10
2 4 9 13 6 8 12 13 9 7 10 11 14 16 18 17 17 17 19 19 15 17 17 16 15 14 13 12 12 11 10 10
Wind_Direction
218 210 237 194 223 246 250 229 260 174 199 229 150 183 187 197 190 187 189 187 189 189 188 191 194 197 200 194 192 204 207 204
196 213 224 234 203 227 245 263 239 178 173 216 183 205 192 187 208 192 190 193 185 191 186 192 192 194 197 198 196 205 213 206
185 204 205 210 226 212 239 238 234 245 184 174 170 187 150 212 200 195 194 198 192 188 188 193 194 191 195 198 193 200 205 207
194 196 222 205 217 203 225 212 258 278 314 169 155 170 194 155 180 188 196 198 192 194 188 184 199 190 188 192 194 188 193 198
190 196 205 219 206 216 220 243 220 246 134 123 135 153 157 164 174 181 189 189 178 187 187 185 185 198 187 180 182 177 175 178
212 206 196 214 209 218 222 220 234 212 250 146 160 194 155 213 169 176 185 170 168 168 166 168 170 180 173 163 165 160 169 176
247 213 204 203 217 223 223 228 227 231 211 236 203 189 208 170 163 175 185 175 163 168 165 162 160 160 159 153 150 152 154 121
227 244 204 210 207 221 227 225 237 246 243 228 194 200 215 147 161 181 188 180 165 166 166 163 158 156 152 143 139 139 116 126
222 226 237 242 220 210 226 225 231 237 237 255 203 203 224 221 181 192 193 182 172 168 164 159 161 148 145 143 131 130 130 125
218 215 229 201 237 214 222 229 228 236 250 250 225 203 225 237 227 203 188 177 172 163 162 159 149 147 135 135 136 135 129 129
210 218 225 219 226 220 234 233 230 234 238 244 227 222 237 267 256 230 179 166 165 161 156 149 147 139 139 140 140 136 135 131
208 225 219 215 211 216 221 228 231 218 232 241 222 230 219 238 212 198 146 151 159 153 147 145 145 146 144 144 143 138 134 131
217 222 240 205 216 187 218 219 208 218 221 231 233 240 237 310 153 147 146 152 150 151 153 148 150 150 145 144 141 138 139 130
215 211 223 232 212 199 201 235 252 213 223 224 232 239 156 144 146 146 150 152 153 155 147 153 153 148 144 143 141 140 131 119
218 223 327 254 245 240 203 209 236 255 242 207 218 227 152 155 154 153 153 155 158 152 152 156 155 155 148 142 141 135 123 120
231 230 236 235 244 240 278 243 241 255 238 209 212 217 153 161 159 155 154 161 155 148 156 156 157 153 139 139 137 134 129 124
230 227 225 229 225 221 206 215 243 270 270 275 196 167 163 168 160 154 159 154 150 158 159 156 153 143 141 143 147 136 133 130
234 216 230 228 224 245 250 252 220 228 244 242 194 165 168 164 161 157 155 154 156 155 153 152 146 143 150 151 148 145 137 147
209 326 341 285 265 289 276 238 257 236 237 200 173 157 164 159 159 152 157 158 153 150 148 148 149 145 147 154 150 149 129 127